Regional Weather Roundup
Issued by NWS Memphis, TN

Home | Current Version | Previous Version | Text Only | Print | Product List | Glossary On
Versions: 1 2 3 4 5 6 7 8 9 10 11 12 13 14 15 16 17 18 19 20 21 22 23 24 25 26 27 28 29 30 31 32 33 34 35 36 37 38 39 40 41 42 43 44 45 46 47 48 49 50
000
ASUS44 KMEG 261710
RWRMEG
MEMPHIS CWA HOURLY WEATHER ROUNDUP
NATIONAL WEATHER SERVICE MEMPHIS TN
1100 AM CST WED NOV 26 2014

...WEST TENNESSEE...

CITY           SKY/WX    TMP DP  RH WIND       PRES   REMARKS
MEMPHIS INTL   CLOUDY    47  28  47 S10       30.06F
NWS MEMPHIS      N/A     47 N/A N/A MISG        N/A
JACKSON        PTSUNNY   46  25  43 SE6       30.09F
LEXINGTON      SUNNY     45  27  49 S6        30.11F
SAVANNAH       SUNNY     46  27  46 S6        30.12F
DYERSBURG      PTSUNNY   43  23  45 SE9       30.09F
UNION CITY     SUNNY     39  30  70 SE5       30.08F
PARIS            N/A     41  28  60 E7        30.10F
HUNTINGDON     PTSUNNY   42  25  51 SE7       30.10F


...EASTERN ARKANSAS...

CITY           SKY/WX    TMP DP  RH WIND       PRES   REMARKS
JONESBORO      CLOUDY    40  32  73 S7        30.03F
WEST MEMPHIS   CLOUDY    45  32  60 S13       30.05F
BATESVILLE     CLOUDY    41  30  65 S6        30.00F
NEWPORT        CLOUDY    43  36  76 S8        30.02F
WALNUT RIDGE   CLOUDY    41  30  65 S5        30.02F
BLYTHEVILLE    CLOUDY    51  31  46 S10       30.06F
SEARCY         CLOUDY    41  36  82 CALM      30.03F
STUTTGART      CLOUDY    46  36  66 S12       30.01F
PINE BLUFF     PTSUNNY   53  34  48 SW14      30.03F
MONTICELLO     PTSUNNY   55  35  47 SW13G20   30.05F


...NORTH MISSISSIPPI...

CITY           SKY/WX    TMP DP  RH WIND       PRES   REMARKS
TUPELO         MOSUNNY   48  30  49 SW12      30.15F
OXFORD         MOSUNNY   46  27  46 S8        30.12F
OLIVE BRANCH   PTSUNNY   45  30  57 S14       30.07F
TUNICA         CLOUDY    46  34  61 S14       30.08F
CLARKSDALE     CLOUDY    48  37  66 S13       30.09F
CORINTH        MOSUNNY   46  27  46 S12       30.13F
GRENADA        SUNNY     54  30  40 S10       30.13F
GREENWOOD      SUNNY     57  30  35 S15       30.12F
COLUMBUS       MOSUNNY   50  26  39 S6        30.18F
STARKVILLE     FAIR      52  28  40 S8        30.16F
GOLDEN TRIANGL SUNNY     48  30  49 S6        30.19F


...SOUTHEAST MISSOURI...

CITY           SKY/WX    TMP DP  RH WIND       PRES   REMARKS
WEST PLAINS    LGT SNOW  33  31  92 W5        29.99F FOG     WCI  29
POPLAR BLUFF   CLOUDY    37  31  78 SE7       30.05F WCI  32
CAPE GIRARDEAU CLOUDY    37  32  82 SE12      30.06F WCI  29


...NORTHWEST ALABAMA...

CITY           SKY/WX    TMP DP  RH WIND       PRES   REMARKS
MUSCLE SHOALS  SUNNY     47  27  45 SE3       30.16F


...MIDDLE TENNESSEE...

CITY           SKY/WX    TMP DP  RH WIND       PRES   REMARKS
NASHVILLE      MOSUNNY   44  25  47 CALM      30.15S
CLARKSVILLE    SUNNY     41  27  57 SE5       30.12F
COLUMBIA       SUNNY     46  32  57 CALM      30.11F


...WESTERN KENTUCKY...

CITY           SKY/WX    TMP DP  RH WIND       PRES   REMARKS
PADUCAH        MOSUNNY   42  31  64 SE10      30.08F
FORT CAMPBELL  SUNNY     42  26  53 SE5       30.12F


...CENTRAL ARKANSAS...

CITY           SKY/WX    TMP DP  RH WIND       PRES   REMARKS
LITTLE ROCK    CLOUDY    45  33  63 W9        30.03F


SKY/WX REPORTED AS FAIR MEANS FEW OR NO CLOUDS BELOW
12 THOUSAND FEET.




USA.gov is the U.S. government's official web portal to all federal, state and local government web resources and services.